Time,TemperatureF,DewpointF,PressureIn,WindDirection,WindDirectionDegrees,WindSpeedMPH,WindSpeedGustMPH,Humidity,HourlyPrecipIn,Conditions,Clouds,dailyrainin,SoftwareType,DateUTC
2013-07-17 00:03:00,57.6,57.0,29.74,WSW,248,6.3,6.3,98,0.00,,,0.00,VWS V14.01,2013-07-17 07:03:00,
2013-07-17 00:08:00,57.6,57.0,29.74,SW,225,2.9,2.9,98,0.00,,,0.00,VWS V14.01,2013-07-17 07:08:00,
2013-07-17 00:13:00,57.6,57.0,29.74,WNW,292,6.5,6.5,98,0.00,,,0.00,VWS V14.01,2013-07-17 07:13:00,
2013-07-17 00:18:00,57.6,57.0,29.74,West,270,5.4,5.4,98,0.00,,,0.00,VWS V14.01,2013-07-17 07:18:00,
2013-07-17 00:23:00,57.6,57.0,29.74,WNW,292,10.1,10.1,98,0.00,,,0.00,VWS V14.01,2013-07-17 07:23:00,
2013-07-17 00:28:00,57.6,57.0,29.74,West,270,4.7,4.7,98,0.00,,,0.00,VWS V14.01,2013-07-17 07:28:00,
2013-07-17 00:33:00,57.6,57.0,29.74,West,270,2.7,2.7,98,0.00,,,0.00,VWS V14.01,2013-07-17 07:33:00,
2013-07-17 00:38:00,57.6,57.0,29.74,NW,315,3.8,3.8,98,0.00,,,0.00,VWS V14.01,2013-07-17 07:38:00,
2013-07-17 00:43:00,57.6,57.0,29.74,WSW,248,3.4,3.4,98,0.00,,,0.00,VWS V14.01,2013-07-17 07:43:00,
2013-07-17 00:48:00,57.6,57.0,29.74,WSW,248,5.6,5.6,98,0.00,,,0.00,VWS V14.01,2013-07-17 07:48:00,
2013-07-17 00:53:00,57.7,57.2,29.76,SW,225,5.8,5.8,98,0.00,,,0.00,VWS V14.01,2013-07-17 07:53:00,
2013-07-17 00:58:00,57.7,57.2,29.76,WNW,292,3.8,3.8,98,0.00,,,0.00,VWS V14.01,2013-07-17 07:58:00,
2013-07-17 01:03:00,57.7,57.2,29.76,WNW,292,5.8,5.8,98,0.00,,,0.00,VWS V14.01,2013-07-17 08:03:00,
2013-07-17 01:08:00,57.7,56.9,29.76,WSW,248,4.0,4.0,97,0.00,,,0.00,VWS V14.01,2013-07-17 08:08:00,
2013-07-17 01:13:00,57.7,56.9,29.74,West,270,6.7,6.7,97,0.00,,,0.00,VWS V14.01,2013-07-17 08:13:00,
2013-07-17 01:18:00,57.9,57.1,29.74,West,270,3.8,3.8,97,0.00,,,0.00,VWS V14.01,2013-07-17 08:18:00,
2013-07-17 01:23:00,57.7,56.9,29.74,West,270,3.8,3.8,97,0.00,,,0.00,VWS V14.01,2013-07-17 08:23:00,
2013-07-17 01:28:00,57.7,56.9,29.74,WSW,248,3.1,3.1,97,0.00,,,0.00,VWS V14.01,2013-07-17 08:28:00,
2013-07-17 01:33:00,57.7,56.9,29.74,West,270,6.7,6.7,97,0.00,,,0.00,VWS V14.01,2013-07-17 08:33:00,
2013-07-17 01:38:00,57.7,56.9,29.76,West,270,5.4,5.4,97,0.00,,,0.00,VWS V14.01,2013-07-17 08:38:00,
2013-07-17 01:43:00,57.7,56.9,29.76,NW,315,4.0,4.0,97,0.00,,,0.00,VWS V14.01,2013-07-17 08:43:00,
2013-07-17 01:48:00,57.9,56.8,29.76,WSW,248,4.3,4.3,96,0.00,,,0.00,VWS V14.01,2013-07-17 08:48:00,
2013-07-17 01:53:00,57.7,56.6,29.76,WNW,292,5.6,5.6,96,0.00,,,0.00,VWS V14.01,2013-07-17 08:53:00,
2013-07-17 01:58:00,57.7,56.6,29.76,West,270,4.9,4.9,96,0.00,,,0.00,VWS V14.01,2013-07-17 08:58:00,
2013-07-17 02:03:00,57.7,56.6,29.76,WNW,292,6.7,6.7,96,0.00,,,0.00,VWS V14.01,2013-07-17 09:03:00,
2013-07-17 02:08:00,57.7,56.6,29.76,WNW,292,1.1,1.1,96,0.00,,,0.00,VWS V14.01,2013-07-17 09:08:00,
2013-07-17 02:13:00,57.7,56.3,29.76,WNW,292,3.1,3.1,95,0.00,,,0.00,VWS V14.01,2013-07-17 09:13:00,
2013-07-17 02:18:00,57.9,56.5,29.76,West,270,5.4,5.4,95,0.00,,,0.00,VWS V14.01,2013-07-17 09:18:00,
2013-07-17 02:23:00,57.7,56.3,29.76,WSW,248,4.0,4.0,95,0.00,,,0.00,VWS V14.01,2013-07-17 09:23:00,
2013-07-17 02:28:00,57.7,56.3,29.76,West,270,6.0,6.0,95,0.00,,,0.00,VWS V14.01,2013-07-17 09:28:00,
2013-07-17 02:33:00,57.7,56.3,29.76,West,270,3.8,3.8,95,0.00,,,0.00,VWS V14.01,2013-07-17 09:33:00,
2013-07-17 02:38:00,57.7,56.3,29.76,WNW,292,3.4,3.4,95,0.00,,,0.00,VWS V14.01,2013-07-17 09:38:00,
2013-07-17 02:43:00,57.7,56.3,29.76,WSW,248,5.6,5.6,95,0.00,,,0.00,VWS V14.01,2013-07-17 09:43:00,
2013-07-17 02:48:00,57.7,56.3,29.76,WSW,248,3.4,3.4,95,0.00,,,0.00,VWS V14.01,2013-07-17 09:48:00,
2013-07-17 02:53:00,57.6,55.8,29.76,WNW,292,7.6,7.6,94,0.00,,,0.00,VWS V14.01,2013-07-17 09:53:00,
2013-07-17 02:58:00,57.6,55.8,29.76,NNW,338,4.3,4.3,94,0.00,,,0.00,VWS V14.01,2013-07-17 09:58:00,
2013-07-17 03:03:00,57.7,56.0,29.76,WNW,292,10.7,10.7,94,0.00,,,0.00,VWS V14.01,2013-07-17 10:03:00,
2013-07-17 03:08:00,57.7,56.0,29.76,West,270,4.7,4.7,94,0.00,,,0.00,VWS V14.01,2013-07-17 10:08:00,
2013-07-17 03:13:00,57.7,56.0,29.76,WSW,248,9.8,9.8,94,0.00,,,0.00,VWS V14.01,2013-07-17 10:13:00,
2013-07-17 03:18:00,57.7,56.0,29.76,WNW,292,6.7,6.7,94,0.00,,,0.00,VWS V14.01,2013-07-17 10:18:00,
2013-07-17 03:23:00,57.7,56.0,29.76,WSW,248,3.4,3.4,94,0.00,,,0.00,VWS V14.01,2013-07-17 10:23:00,
2013-07-17 03:28:00,57.7,55.7,29.76,WSW,248,5.6,5.6,93,0.00,,,0.00,VWS V14.01,2013-07-17 10:28:00,
2013-07-17 03:33:00,57.6,55.6,29.76,West,270,10.5,10.5,93,0.00,,,0.00,VWS V14.01,2013-07-17 10:33:00,
2013-07-17 03:38:00,57.6,55.6,29.74,WSW,248,9.2,9.2,93,0.00,,,0.00,VWS V14.01,2013-07-17 10:38:00,
2013-07-17 03:43:00,57.6,55.6,29.74,WSW,248,8.7,8.7,93,0.00,,,0.00,VWS V14.01,2013-07-17 10:43:00,
2013-07-17 03:48:00,57.6,55.6,29.74,West,270,7.2,7.2,93,0.00,,,0.00,VWS V14.01,2013-07-17 10:48:00,
2013-07-17 03:53:00,57.6,55.6,29.74,WSW,248,6.0,6.0,93,0.00,,,0.00,VWS V14.01,2013-07-17 10:53:00,
2013-07-17 03:58:00,57.6,55.6,29.74,West,270,3.1,3.1,93,0.00,,,0.00,VWS V14.01,2013-07-17 10:58:00,
2013-07-17 04:03:00,57.6,55.6,29.74,WSW,248,8.7,8.7,93,0.00,,,0.00,VWS V14.01,2013-07-17 11:03:00,
2013-07-17 04:08:00,57.6,55.6,29.76,WNW,292,7.6,7.6,93,0.00,,,0.00,VWS V14.01,2013-07-17 11:08:00,
2013-07-17 04:13:00,57.6,55.6,29.76,West,270,9.4,9.4,93,0.00,,,0.00,VWS V14.01,2013-07-17 11:13:00,
2013-07-17 04:18:00,57.4,55.4,29.76,WNW,292,8.5,8.5,93,0.00,,,0.00,VWS V14.01,2013-07-17 11:18:00,
2013-07-17 04:23:00,57.4,55.4,29.74,West,270,3.1,3.1,93,0.00,,,0.00,VWS V14.01,2013-07-17 11:23:00,
2013-07-17 04:28:00,57.4,55.4,29.74,West,270,10.1,10.1,93,0.00,,,0.00,VWS V14.01,2013-07-17 11:28:00,
2013-07-17 04:33:00,57.4,55.4,29.74,West,270,8.1,8.1,93,0.00,,,0.00,VWS V14.01,2013-07-17 11:33:00,
2013-07-17 04:38:00,57.4,55.4,29.76,WSW,248,4.3,4.3,93,0.00,,,0.00,VWS V14.01,2013-07-17 11:38:00,
2013-07-17 04:43:00,57.4,55.4,29.76,West,270,6.3,6.3,93,0.00,,,0.00,VWS V14.01,2013-07-17 11:43:00,
2013-07-17 04:48:00,57.2,55.5,29.76,WSW,248,7.6,7.6,94,0.00,,,0.00,VWS V14.01,2013-07-17 11:48:00,
2013-07-17 04:53:00,57.2,55.5,29.76,WSW,248,6.0,6.0,94,0.00,,,0.00,VWS V14.01,2013-07-17 11:53:00,
2013-07-17 04:58:00,57.2,55.2,29.76,WNW,292,6.3,6.3,93,0.00,,,0.00,VWS V14.01,2013-07-17 11:58:00,
2013-07-17 05:03:00,57.2,55.2,29.76,West,270,7.6,7.6,93,0.00,,,0.00,VWS V14.01,2013-07-17 12:03:00,
2013-07-17 05:08:00,57.2,55.2,29.76,WNW,292,2.9,2.9,93,0.00,,,0.00,VWS V14.01,2013-07-17 12:08:00,
2013-07-17 05:13:00,57.2,55.2,29.76,WNW,292,8.7,8.7,93,0.00,,,0.00,VWS V14.01,2013-07-17 12:13:00,
2013-07-17 05:18:00,57.2,55.2,29.76,WNW,292,7.2,7.2,93,0.00,,,0.00,VWS V14.01,2013-07-17 12:18:00,
2013-07-17 05:23:00,57.2,55.2,29.76,WNW,292,2.9,2.9,93,0.00,,,0.00,VWS V14.01,2013-07-17 12:23:00,
2013-07-17 05:28:00,57.2,55.2,29.76,SW,225,5.4,5.4,93,0.00,,,0.00,VWS V14.01,2013-07-17 12:28:00,
2013-07-17 05:33:00,57.0,55.0,29.76,West,270,8.5,8.5,93,0.00,,,0.00,VWS V14.01,2013-07-17 12:33:00,
2013-07-17 05:38:00,57.0,55.0,29.76,West,270,7.2,7.2,93,0.00,,,0.00,VWS V14.01,2013-07-17 12:38:00,
2013-07-17 05:43:00,56.8,54.8,29.76,West,270,6.5,6.5,93,0.00,,,0.00,VWS V14.01,2013-07-17 12:43:00,
2013-07-17 05:48:00,57.0,55.0,29.76,West,270,4.9,4.9,93,0.00,,,0.00,VWS V14.01,2013-07-17 12:48:00,
2013-07-17 05:53:00,57.0,55.0,29.76,WNW,292,7.8,7.8,93,0.00,,,0.00,VWS V14.01,2013-07-17 12:53:00,
2013-07-17 05:58:00,57.2,54.9,29.76,WSW,248,5.6,5.6,92,0.00,,,0.00,VWS V14.01,2013-07-17 12:58:00,
2013-07-17 06:03:00,57.2,54.9,29.76,WSW,248,5.4,5.4,92,0.00,,,0.00,VWS V14.01,2013-07-17 13:03:00,
2013-07-17 06:08:00,57.2,54.9,29.76,NW,315,3.8,3.8,92,0.00,,,0.00,VWS V14.01,2013-07-17 13:08:00,
2013-07-17 06:13:00,57.2,54.9,29.76,WSW,248,2.7,2.7,92,0.00,,,0.00,VWS V14.01,2013-07-17 13:13:00,
2013-07-17 06:18:00,57.0,54.7,29.76,NW,315,10.3,10.3,92,0.00,,,0.00,VWS V14.01,2013-07-17 13:18:00,
2013-07-17 06:23:00,57.0,54.7,29.76,WNW,292,6.9,6.9,92,0.00,,,0.00,VWS V14.01,2013-07-17 13:23:00,
2013-07-17 06:28:00,57.0,54.7,29.76,NNW,338,5.4,5.4,92,0.00,,,0.00,VWS V14.01,2013-07-17 13:28:00,
2013-07-17 06:33:00,57.2,54.9,29.76,WNW,292,6.0,6.0,92,0.00,,,0.00,VWS V14.01,2013-07-17 13:33:00,
2013-07-17 06:38:00,57.2,54.9,29.76,West,270,10.7,10.7,92,0.00,,,0.00,VWS V14.01,2013-07-17 13:38:00,
2013-07-17 06:43:00,57.2,54.9,29.79,NNW,338,7.4,7.4,92,0.00,,,0.00,VWS V14.01,2013-07-17 13:43:00,
2013-07-17 06:48:00,57.0,54.7,29.79,WNW,292,7.6,7.6,92,0.00,,,0.00,VWS V14.01,2013-07-17 13:48:00,
2013-07-17 06:53:00,57.2,54.6,29.79,SSW,202,4.3,4.3,91,0.00,,,0.00,VWS V14.01,2013-07-17 13:53:00,
2013-07-17 06:58:00,57.2,54.9,29.79,SW,225,3.8,3.8,92,0.00,,,0.00,VWS V14.01,2013-07-17 13:58:00,
2013-07-17 07:03:00,57.2,54.9,29.79,West,270,11.0,11.0,92,0.00,,,0.00,VWS V14.01,2013-07-17 14:03:00,
2013-07-17 07:08:00,57.2,54.6,29.79,WNW,292,4.9,4.9,91,0.00,,,0.00,VWS V14.01,2013-07-17 14:08:00,
2013-07-17 07:13:00,57.2,54.6,29.79,WSW,248,4.0,4.0,91,0.00,,,0.00,VWS V14.01,2013-07-17 14:13:00,
2013-07-17 07:18:00,57.2,54.6,29.79,WSW,248,8.1,8.1,91,0.00,,,0.00,VWS V14.01,2013-07-17 14:18:00,
2013-07-17 07:23:00,57.2,54.6,29.79,NW,315,3.4,3.4,91,0.00,,,0.00,VWS V14.01,2013-07-17 14:23:00,
2013-07-17 07:28:00,57.2,54.6,29.79,WSW,248,5.6,5.6,91,0.00,,,0.00,VWS V14.01,2013-07-17 14:28:00,
2013-07-17 07:33:00,57.2,54.6,29.79,WNW,292,7.2,7.2,91,0.00,,,0.00,VWS V14.01,2013-07-17 14:33:00,
2013-07-17 07:38:00,57.2,54.6,29.79,WNW,292,6.9,6.9,91,0.00,,,0.00,VWS V14.01,2013-07-17 14:38:00,
2013-07-17 07:43:00,57.2,54.6,29.79,NNW,338,7.4,7.4,91,0.00,,,0.00,VWS V14.01,2013-07-17 14:43:00,
2013-07-17 07:48:00,57.2,54.6,29.79,West,270,4.3,4.3,91,0.00,,,0.00,VWS V14.01,2013-07-17 14:48:00,
2013-07-17 07:53:00,57.4,54.8,29.79,West,270,6.0,6.0,91,0.00,,,0.00,VWS V14.01,2013-07-17 14:53:00,
2013-07-17 07:58:00,57.2,54.6,29.79,West,270,6.5,6.5,91,0.00,,,0.00,VWS V14.01,2013-07-17 14:58:00,
2013-07-17 08:03:00,57.4,54.8,29.79,West,270,4.9,4.9,91,0.00,,,0.00,VWS V14.01,2013-07-17 15:03:00,
2013-07-17 08:08:00,57.6,55.3,29.79,NW,315,2.9,2.9,92,0.00,,,0.00,VWS V14.01,2013-07-17 15:08:00,
2013-07-17 08:13:00,57.6,55.3,29.79,West,270,2.9,2.9,92,0.00,,,0.00,VWS V14.01,2013-07-17 15:13:00,
2013-07-17 08:18:00,57.6,55.3,29.79,WSW,248,7.6,7.6,92,0.00,,,0.00,VWS V14.01,2013-07-17 15:18:00,
2013-07-17 08:23:00,57.2,54.9,29.79,WNW,292,3.8,3.8,92,0.00,,,0.00,VWS V14.01,2013-07-17 15:23:00,
2013-07-17 08:28:00,57.2,54.9,29.79,West,270,4.3,4.3,92,0.00,,,0.00,VWS V14.01,2013-07-17 15:28:00,
2013-07-17 08:33:00,57.2,54.9,29.79,WNW,292,10.1,10.1,92,0.00,,,0.00,VWS V14.01,2013-07-17 15:33:00,
2013-07-17 08:38:00,57.2,54.9,29.79,WNW,292,7.2,7.2,92,0.00,,,0.00,VWS V14.01,2013-07-17 15:38:00,
2013-07-17 08:43:00,57.4,55.1,29.79,WSW,248,4.7,4.7,92,0.00,,,0.00,VWS V14.01,2013-07-17 15:43:00,
2013-07-17 08:48:00,57.4,55.1,29.79,West,270,4.3,4.3,92,0.00,,,0.00,VWS V14.01,2013-07-17 15:48:00,
2013-07-17 08:53:00,57.6,55.3,29.82,WSW,248,4.9,4.9,92,0.00,,,0.00,VWS V14.01,2013-07-17 15:53:00,
2013-07-17 08:58:00,57.6,55.3,29.82,WSW,248,8.7,8.7,92,0.00,,,0.00,VWS V14.01,2013-07-17 15:58:00,
2013-07-17 09:03:00,57.7,55.4,29.82,WSW,248,4.9,4.9,92,0.00,,,0.00,VWS V14.01,2013-07-17 16:03:00,
2013-07-17 09:08:00,57.7,55.4,29.82,WSW,248,5.6,5.6,92,0.00,,,0.00,VWS V14.01,2013-07-17 16:08:00,
2013-07-17 09:13:00,57.7,55.4,29.82,WSW,248,5.8,5.8,92,0.00,,,0.00,VWS V14.01,2013-07-17 16:13:00,
2013-07-17 09:18:00,57.9,55.6,29.82,West,270,6.0,6.0,92,0.00,,,0.00,VWS V14.01,2013-07-17 16:18:00,
2013-07-17 09:23:00,57.7,55.4,29.82,WNW,292,6.5,6.5,92,0.00,,,0.00,VWS V14.01,2013-07-17 16:23:00,
2013-07-17 09:28:00,57.9,55.3,29.82,NNW,338,7.6,7.6,91,0.00,,,0.00,VWS V14.01,2013-07-17 16:28:00,
2013-07-17 09:33:00,57.7,55.1,29.82,WNW,292,6.3,6.3,91,0.00,,,0.00,VWS V14.01,2013-07-17 16:33:00,
2013-07-17 09:38:00,57.9,55.3,29.82,NW,315,5.6,5.6,91,0.00,,,0.00,VWS V14.01,2013-07-17 16:38:00,
2013-07-17 09:43:00,57.9,55.3,29.82,West,270,6.3,6.3,91,0.00,,,0.00,VWS V14.01,2013-07-17 16:43:00,
2013-07-17 09:48:00,57.7,55.1,29.82,NNW,338,2.0,2.0,91,0.00,,,0.00,VWS V14.01,2013-07-17 16:48:00,
2013-07-17 09:53:00,57.9,55.3,29.82,West,270,2.7,2.7,91,0.00,,,0.00,VWS V14.01,2013-07-17 16:53:00,
2013-07-17 09:58:00,57.9,55.3,29.82,WNW,292,2.7,2.7,91,0.00,,,0.00,VWS V14.01,2013-07-17 16:58:00,
2013-07-17 10:03:00,57.9,55.3,29.82,WSW,248,9.6,9.6,91,0.00,,,0.00,VWS V14.01,2013-07-17 17:03:00,
2013-07-17 10:08:00,57.9,55.0,29.82,WSW,248,5.8,5.8,90,0.00,,,0.00,VWS V14.01,2013-07-17 17:08:00,
2013-07-17 10:13:00,57.9,55.0,29.82,West,270,5.8,5.8,90,0.00,,,0.00,VWS V14.01,2013-07-17 17:13:00,
2013-07-17 10:18:00,57.9,55.0,29.82,WSW,248,4.0,4.0,90,0.00,,,0.00,VWS V14.01,2013-07-17 17:18:00,
2013-07-17 10:23:00,58.1,55.2,29.82,WSW,248,6.5,6.5,90,0.00,,,0.00,VWS V14.01,2013-07-17 17:23:00,
2013-07-17 10:28:00,58.1,54.9,29.82,WNW,292,3.1,3.1,89,0.00,,,0.00,VWS V14.01,2013-07-17 17:28:00,
2013-07-17 10:33:00,58.3,55.1,29.82,WNW,292,3.1,3.1,89,0.00,,,0.00,VWS V14.01,2013-07-17 17:33:00,
2013-07-17 10:38:00,58.1,54.6,29.82,WNW,292,9.8,9.8,88,0.00,,,0.00,VWS V14.01,2013-07-17 17:38:00,
2013-07-17 10:43:00,58.5,55.2,29.82,WSW,248,10.3,10.3,89,0.00,,,0.00,VWS V14.01,2013-07-17 17:43:00,
2013-07-17 10:48:00,58.1,54.6,29.82,NW,315,6.7,6.7,88,0.00,,,0.00,VWS V14.01,2013-07-17 17:48:00,
2013-07-17 10:53:00,58.1,54.6,29.82,NNW,338,5.4,5.4,88,0.00,,,0.00,VWS V14.01,2013-07-17 17:53:00,
2013-07-17 10:58:00,58.1,54.6,29.82,West,270,11.0,11.0,88,0.00,,,0.00,VWS V14.01,2013-07-17 17:58:00,
2013-07-17 11:03:00,58.6,55.1,29.82,SW,225,2.5,2.5,88,0.00,,,0.00,VWS V14.01,2013-07-17 18:03:00,
2013-07-17 11:08:00,58.5,54.9,29.82,NW,315,3.4,3.4,88,0.00,,,0.00,VWS V14.01,2013-07-17 18:08:00,
2013-07-17 11:13:00,58.8,55.0,29.82,SSW,202,8.1,8.1,87,0.00,,,0.00,VWS V14.01,2013-07-17 18:13:00,
2013-07-17 11:18:00,58.8,54.7,29.82,WSW,248,4.0,4.0,86,0.00,,,0.00,VWS V14.01,2013-07-17 18:18:00,
2013-07-17 11:23:00,59.0,54.5,29.82,WSW,248,3.8,3.8,85,0.00,,,0.00,VWS V14.01,2013-07-17 18:23:00,
2013-07-17 11:28:00,58.5,54.0,29.82,NNW,338,4.3,4.3,85,0.00,,,0.00,VWS V14.01,2013-07-17 18:28:00,
2013-07-17 11:33:00,58.6,54.5,29.82,West,270,5.8,5.8,86,0.00,,,0.00,VWS V14.01,2013-07-17 18:33:00,
2013-07-17 11:38:00,58.8,54.3,29.82,West,270,9.2,9.2,85,0.00,,,0.00,VWS V14.01,2013-07-17 18:38:00,
2013-07-17 11:43:00,59.0,54.5,29.82,WSW,248,11.0,11.0,85,0.00,,,0.00,VWS V14.01,2013-07-17 18:43:00,
2013-07-17 11:48:00,59.4,54.5,29.82,West,270,9.4,9.4,84,0.00,,,0.00,VWS V14.01,2013-07-17 18:48:00,
2013-07-17 11:53:00,59.7,54.6,29.82,WSW,248,4.3,4.3,83,0.00,,,0.00,VWS V14.01,2013-07-17 18:53:00,
2013-07-17 11:58:00,60.1,54.6,29.82,West,270,7.6,7.6,82,0.00,,,0.00,VWS V14.01,2013-07-17 18:58:00,
2013-07-17 12:03:00,59.5,54.0,29.82,WNW,292,9.2,9.2,82,0.00,,,0.00,VWS V14.01,2013-07-17 19:03:00,
2013-07-17 12:08:00,59.9,54.7,29.82,WSW,248,11.0,11.0,83,0.00,,,0.00,VWS V14.01,2013-07-17 19:08:00,
2013-07-17 12:13:00,59.7,54.2,29.82,SW,225,8.7,8.7,82,0.00,,,0.00,VWS V14.01,2013-07-17 19:13:00,
2013-07-17 12:18:00,59.7,54.6,29.82,WNW,292,9.8,9.8,83,0.00,,,0.00,VWS V14.01,2013-07-17 19:18:00,
2013-07-17 12:23:00,59.9,54.7,29.82,WSW,248,11.0,11.0,83,0.00,,,0.00,VWS V14.01,2013-07-17 19:23:00,
2013-07-17 12:28:00,60.1,54.6,29.82,WNW,292,9.6,9.6,82,0.00,,,0.00,VWS V14.01,2013-07-17 19:28:00,
2013-07-17 12:33:00,59.7,54.2,29.82,WNW,292,9.0,9.0,82,0.00,,,0.00,VWS V14.01,2013-07-17 19:33:00,
2013-07-17 12:38:00,60.1,54.6,29.82,WSW,248,10.3,10.3,82,0.00,,,0.00,VWS V14.01,2013-07-17 19:38:00,
2013-07-17 12:43:00,60.1,54.6,29.82,WNW,292,9.4,9.4,82,0.00,,,0.00,VWS V14.01,2013-07-17 19:43:00,
2013-07-17 12:48:00,60.3,54.4,29.82,WSW,248,15.7,15.7,81,0.00,,,0.00,VWS V14.01,2013-07-17 19:48:00,
2013-07-17 12:53:00,60.1,54.2,29.82,WNW,292,9.4,9.4,81,0.00,,,0.00,VWS V14.01,2013-07-17 19:53:00,
2013-07-17 12:58:00,60.6,54.8,29.79,SW,225,10.5,10.5,81,0.00,,,0.00,VWS V14.01,2013-07-17 19:58:00,
2013-07-17 13:03:00,60.4,54.2,29.79,West,270,9.8,9.8,80,0.00,,,0.00,VWS V14.01,2013-07-17 20:03:00,
2013-07-17 13:08:00,60.4,54.6,29.79,West,270,12.8,12.8,81,0.00,,,0.00,VWS V14.01,2013-07-17 20:08:00,
2013-07-17 13:13:00,60.6,54.8,29.79,SW,225,11.0,11.0,81,0.00,,,0.00,VWS V14.01,2013-07-17 20:13:00,
2013-07-17 13:18:00,61.0,54.8,29.79,WSW,248,10.5,10.5,80,0.00,,,0.00,VWS V14.01,2013-07-17 20:18:00,
2013-07-17 13:23:00,61.0,54.4,29.79,WSW,248,11.4,11.4,79,0.00,,,0.00,VWS V14.01,2013-07-17 20:23:00,
2013-07-17 13:28:00,61.2,54.6,29.79,WSW,248,9.4,9.4,79,0.00,,,0.00,VWS V14.01,2013-07-17 20:28:00,
2013-07-17 13:33:00,61.2,54.6,29.79,West,270,7.4,7.4,79,0.00,,,0.00,VWS V14.01,2013-07-17 20:33:00,
2013-07-17 13:38:00,61.3,54.4,29.79,WSW,248,8.7,8.7,78,0.00,,,0.00,VWS V14.01,2013-07-17 20:38:00,
2013-07-17 13:43:00,61.7,54.8,29.79,WSW,248,7.2,7.2,78,0.00,,,0.00,VWS V14.01,2013-07-17 20:43:00,
2013-07-17 13:48:00,61.3,54.4,29.79,West,270,10.7,10.7,78,0.00,,,0.00,VWS V14.01,2013-07-17 20:48:00,
2013-07-17 13:53:00,61.0,54.4,29.79,WSW,248,7.8,7.8,79,0.00,,,0.00,VWS V14.01,2013-07-17 20:53:00,
2013-07-17 13:58:00,61.3,54.8,29.79,SSW,202,8.1,8.1,79,0.00,,,0.00,VWS V14.01,2013-07-17 20:58:00,
2013-07-17 14:03:00,61.3,54.4,29.79,West,270,11.4,11.4,78,0.00,,,0.00,VWS V14.01,2013-07-17 21:03:00,
2013-07-17 14:08:00,61.0,54.4,29.79,WSW,248,8.1,8.1,79,0.00,,,0.00,VWS V14.01,2013-07-17 21:08:00,
2013-07-17 14:13:00,61.3,54.4,29.79,WSW,248,14.1,14.1,78,0.00,,,0.00,VWS V14.01,2013-07-17 21:13:00,
2013-07-17 14:18:00,61.2,53.9,29.79,WSW,248,8.1,8.1,77,0.00,,,0.00,VWS V14.01,2013-07-17 21:18:00,
2013-07-17 14:23:00,61.2,54.3,29.79,WSW,248,9.0,9.0,78,0.00,,,0.00,VWS V14.01,2013-07-17 21:23:00,
2013-07-17 14:28:00,61.3,54.4,29.79,NW,315,9.8,9.8,78,0.00,,,0.00,VWS V14.01,2013-07-17 21:28:00,
2013-07-17 14:33:00,61.3,54.1,29.79,NW,315,12.8,12.8,77,0.00,,,0.00,VWS V14.01,2013-07-17 21:33:00,
2013-07-17 14:38:00,61.0,54.1,29.79,West,270,14.5,14.5,78,0.00,,,0.00,VWS V14.01,2013-07-17 21:38:00,
2013-07-17 14:43:00,60.8,53.9,29.79,WNW,292,17.5,17.5,78,0.00,,,0.00,VWS V14.01,2013-07-17 21:43:00,
2013-07-17 14:48:00,61.0,54.4,29.79,West,270,7.6,7.6,79,0.00,,,0.00,VWS V14.01,2013-07-17 21:48:00,
2013-07-17 14:53:00,61.0,54.1,29.79,NNE,22,6.9,6.9,78,0.00,,,0.00,VWS V14.01,2013-07-17 21:53:00,
2013-07-17 14:58:00,61.3,54.8,29.79,WSW,248,14.5,14.5,79,0.00,,,0.00,VWS V14.01,2013-07-17 21:58:00,
2013-07-17 15:03:00,61.0,54.1,29.79,WSW,248,10.5,10.5,78,0.00,,,0.00,VWS V14.01,2013-07-17 22:03:00,
2013-07-17 15:08:00,60.8,53.9,29.79,West,270,10.7,10.7,78,0.00,,,0.00,VWS V14.01,2013-07-17 22:08:00,
2013-07-17 15:13:00,61.0,54.1,29.79,West,270,10.5,10.5,78,0.00,,,0.00,VWS V14.01,2013-07-17 22:13:00,
2013-07-17 15:18:00,61.0,53.7,29.79,West,270,14.8,14.8,77,0.00,,,0.00,VWS V14.01,2013-07-17 22:18:00,
2013-07-17 15:23:00,60.8,53.9,29.79,SW,225,8.1,8.1,78,0.00,,,0.00,VWS V14.01,2013-07-17 22:23:00,
2013-07-17 15:28:00,60.4,53.6,29.79,WNW,292,16.6,16.6,78,0.00,,,0.00,VWS V14.01,2013-07-17 22:28:00,
2013-07-17 15:33:00,60.1,53.6,29.79,WNW,292,13.4,13.4,79,0.00,,,0.00,VWS V14.01,2013-07-17 22:33:00,
2013-07-17 15:38:00,60.4,53.9,29.79,WSW,248,9.8,9.8,79,0.00,,,0.00,VWS V14.01,2013-07-17 22:38:00,
2013-07-17 15:43:00,60.3,53.7,29.79,WNW,292,14.5,14.5,79,0.00,,,0.00,VWS V14.01,2013-07-17 22:43:00,
2013-07-17 15:48:00,60.1,53.9,29.79,WSW,248,15.4,15.4,80,0.00,,,0.00,VWS V14.01,2013-07-17 22:48:00,
2013-07-17 15:53:00,59.7,53.5,29.79,WSW,248,12.5,12.5,80,0.00,,,0.00,VWS V14.01,2013-07-17 22:53:00,
2013-07-17 15:57:00,59.7,53.9,29.79,WNW,292,11.4,11.4,81,0.00,,,0.00,VWS V14.01,2013-07-17 22:57:00,
2013-07-17 16:02:00,60.1,53.9,29.79,West,270,17.5,17.5,80,0.00,,,0.00,VWS V14.01,2013-07-17 23:02:00,
2013-07-17 16:07:00,60.3,54.1,29.79,WSW,248,15.7,15.7,80,0.00,,,0.00,VWS V14.01,2013-07-17 23:07:00,
2013-07-17 16:12:00,60.1,53.6,29.76,West,270,23.5,23.5,79,0.00,,,0.00,VWS V14.01,2013-07-17 23:12:00,
2013-07-17 16:17:00,59.5,53.7,29.76,West,270,15.2,15.2,81,0.00,,,0.00,VWS V14.01,2013-07-17 23:17:00,
2013-07-17 16:22:00,59.5,53.7,29.76,WSW,248,12.8,12.8,81,0.00,,,0.00,VWS V14.01,2013-07-17 23:22:00,
2013-07-17 16:27:00,59.7,53.9,29.76,WSW,248,13.0,13.0,81,0.00,,,0.00,VWS V14.01,2013-07-17 23:27:00,
2013-07-17 16:32:00,59.9,53.7,29.76,SW,225,22.8,22.8,80,0.00,,,0.00,VWS V14.01,2013-07-17 23:32:00,
2013-07-17 16:37:00,59.2,53.4,29.76,West,270,15.2,15.2,81,0.00,,,0.00,VWS V14.01,2013-07-17 23:37:00,
2013-07-17 16:42:00,59.4,53.5,29.76,NW,315,18.6,18.6,81,0.00,,,0.00,VWS V14.01,2013-07-17 23:42:00,
2013-07-17 16:47:00,58.8,53.3,29.76,WSW,248,16.6,16.6,82,0.00,,,0.00,VWS V14.01,2013-07-17 23:47:00,
2013-07-17 16:52:00,58.8,53.3,29.76,SSW,202,15.9,15.9,82,0.00,,,0.00,VWS V14.01,2013-07-17 23:52:00,
2013-07-17 16:57:00,58.8,53.7,29.76,SW,225,13.2,13.2,83,0.00,,,0.00,VWS V14.01,2013-07-17 23:57:00,
2013-07-17 17:02:00,58.5,53.7,29.76,WSW,248,16.6,16.6,84,0.00,,,0.00,VWS V14.01,2013-07-18 00:02:00,
2013-07-17 17:07:00,58.3,53.5,29.76,West,270,13.2,13.2,84,0.00,,,0.00,VWS V14.01,2013-07-18 00:07:00,
2013-07-17 17:12:00,58.1,53.6,29.76,WSW,248,12.3,12.3,85,0.00,,,0.00,VWS V14.01,2013-07-18 00:12:00,
2013-07-17 17:17:00,58.1,53.6,29.76,West,270,22.8,22.8,85,0.00,,,0.00,VWS V14.01,2013-07-18 00:17:00,
2013-07-17 17:22:00,57.9,53.8,29.76,WSW,248,19.2,19.2,86,0.00,,,0.00,VWS V14.01,2013-07-18 00:22:00,
2013-07-17 17:27:00,57.6,53.7,29.76,West,270,15.2,15.2,87,0.00,,,0.00,VWS V14.01,2013-07-18 00:27:00,
2013-07-17 17:32:00,57.2,53.4,29.76,West,270,17.2,17.2,87,0.00,,,0.00,VWS V14.01,2013-07-18 00:32:00,
2013-07-17 17:37:00,57.2,53.4,29.76,West,270,12.8,12.8,87,0.00,,,0.00,VWS V14.01,2013-07-18 00:37:00,
2013-07-17 17:42:00,57.0,53.5,29.76,West,270,19.7,19.7,88,0.00,,,0.00,VWS V14.01,2013-07-18 00:42:00,
2013-07-17 17:47:00,56.8,53.6,29.76,WSW,248,13.4,13.4,89,0.00,,,0.00,VWS V14.01,2013-07-18 00:47:00,
2013-07-17 17:52:00,57.0,53.8,29.76,WSW,248,13.9,13.9,89,0.00,,,0.00,VWS V14.01,2013-07-18 00:52:00,
2013-07-17 17:57:00,56.8,53.6,29.74,WSW,248,15.2,15.2,89,0.00,,,0.00,VWS V14.01,2013-07-18 00:57:00,
2013-07-17 18:02:00,56.5,53.6,29.74,WSW,248,16.8,16.8,90,0.00,,,0.00,VWS V14.01,2013-07-18 01:02:00,
2013-07-17 18:07:00,56.5,53.9,29.74,WSW,248,15.4,15.4,91,0.00,,,0.00,VWS V14.01,2013-07-18 01:07:00,
2013-07-17 18:12:00,56.3,54.0,29.74,West,270,23.5,23.5,92,0.00,,,0.00,VWS V14.01,2013-07-18 01:12:00,
2013-07-17 18:17:00,56.1,54.1,29.74,WSW,248,15.2,15.2,93,0.00,,,0.00,VWS V14.01,2013-07-18 01:17:00,
2013-07-17 18:22:00,55.9,54.0,29.74,WSW,248,12.3,12.3,93,0.00,,,0.00,VWS V14.01,2013-07-18 01:22:00,
2013-07-17 18:27:00,55.8,54.1,29.74,WSW,248,20.8,20.8,94,0.00,,,0.00,VWS V14.01,2013-07-18 01:27:00,
2013-07-17 18:32:00,55.9,54.2,29.74,West,270,13.0,13.0,94,0.00,,,0.00,VWS V14.01,2013-07-18 01:32:00,
2013-07-17 18:37:00,55.8,54.1,29.74,West,270,14.3,14.3,94,0.00,,,0.00,VWS V14.01,2013-07-18 01:37:00,
2013-07-17 18:42:00,55.4,54.0,29.74,WSW,248,13.0,13.0,95,0.00,,,0.00,VWS V14.01,2013-07-18 01:42:00,
2013-07-17 18:47:00,55.4,54.3,29.74,WSW,248,16.6,16.6,96,0.00,,,0.00,VWS V14.01,2013-07-18 01:47:00,
2013-07-17 18:52:00,55.4,54.3,29.74,WNW,292,22.8,22.8,96,0.00,,,0.00,VWS V14.01,2013-07-18 01:52:00,
2013-07-17 18:57:00,55.6,54.5,29.76,WSW,248,12.8,12.8,96,0.00,,,0.00,VWS V14.01,2013-07-18 01:57:00,
2013-07-17 19:02:00,55.6,54.5,29.76,West,270,19.9,19.9,96,0.00,,,0.00,VWS V14.01,2013-07-18 02:02:00,
2013-07-17 19:07:00,55.6,54.5,29.76,WSW,248,13.2,13.2,96,0.00,,,0.00,VWS V14.01,2013-07-18 02:07:00,
2013-07-17 19:12:00,55.9,55.1,29.74,WSW,248,10.5,10.5,97,0.00,,,0.00,VWS V14.01,2013-07-18 02:12:00,
2013-07-17 19:17:00,55.8,54.6,29.74,WNW,292,15.2,15.2,96,0.00,,,0.00,VWS V14.01,2013-07-18 02:17:00,
2013-07-17 19:22:00,55.8,54.6,29.74,WSW,248,22.6,22.6,96,0.00,,,0.00,VWS V14.01,2013-07-18 02:22:00,
2013-07-17 19:27:00,55.4,54.3,29.74,WSW,248,8.1,8.1,96,0.00,,,0.00,VWS V14.01,2013-07-18 02:27:00,
2013-07-17 19:32:00,55.6,54.5,29.74,WSW,248,19.5,19.5,96,0.00,,,0.00,VWS V14.01,2013-07-18 02:32:00,
2013-07-17 19:37:00,55.4,54.3,29.74,WSW,248,12.3,12.3,96,0.00,,,0.00,VWS V14.01,2013-07-18 02:37:00,
2013-07-17 19:42:00,55.6,54.5,29.76,WNW,292,13.2,13.2,96,0.00,,,0.00,VWS V14.01,2013-07-18 02:42:00,
2013-07-17 19:47:00,55.4,54.6,29.76,West,270,13.0,13.0,97,0.00,,,0.00,VWS V14.01,2013-07-18 02:47:00,
2013-07-17 19:52:00,55.4,54.6,29.76,WNW,292,13.9,13.9,97,0.00,,,0.00,VWS V14.01,2013-07-18 02:52:00,
2013-07-17 19:57:00,55.2,54.4,29.76,WSW,248,10.7,10.7,97,0.00,,,0.00,VWS V14.01,2013-07-18 02:57:00,
2013-07-17 20:02:00,55.2,54.4,29.76,West,270,11.9,11.9,97,0.00,,,0.00,VWS V14.01,2013-07-18 03:02:00,
2013-07-17 20:07:00,55.0,54.2,29.76,WSW,248,15.4,15.4,97,0.00,,,0.00,VWS V14.01,2013-07-18 03:07:00,
2013-07-17 20:12:00,55.0,54.2,29.76,WSW,248,13.2,13.2,97,0.00,,,0.00,VWS V14.01,2013-07-18 03:12:00,
2013-07-17 20:17:00,55.2,54.7,29.76,WSW,248,11.2,11.2,98,0.00,,,0.00,VWS V14.01,2013-07-18 03:17:00,
2013-07-17 20:22:00,55.2,54.7,29.76,WNW,292,17.7,17.7,98,0.00,,,0.00,VWS V14.01,2013-07-18 03:22:00,
2013-07-17 20:27:00,55.0,54.5,29.76,NW,315,13.6,13.6,98,0.00,,,0.00,VWS V14.01,2013-07-18 03:27:00,
2013-07-17 20:32:00,54.9,54.3,29.76,WSW,248,18.8,18.8,98,0.00,,,0.00,VWS V14.01,2013-07-18 03:32:00,
2013-07-17 20:37:00,54.7,54.1,29.76,WSW,248,17.9,17.9,98,0.00,,,0.00,VWS V14.01,2013-07-18 03:37:00,
2013-07-17 20:42:00,54.7,54.1,29.76,WNW,292,10.7,10.7,98,0.00,,,0.00,VWS V14.01,2013-07-18 03:42:00,
2013-07-17 20:47:00,54.9,54.3,29.76,West,270,8.5,8.5,98,0.00,,,0.00,VWS V14.01,2013-07-18 03:47:00,
2013-07-17 20:52:00,54.7,54.1,29.76,WSW,248,17.2,17.2,98,0.00,,,0.00,VWS V14.01,2013-07-18 03:52:00,
2013-07-17 20:57:00,54.7,54.1,29.76,SSW,202,19.5,19.5,98,0.00,,,0.00,VWS V14.01,2013-07-18 03:57:00,
2013-07-17 21:01:00,54.7,54.1,29.76,WSW,248,15.9,15.9,98,0.00,,,0.00,VWS V14.01,2013-07-18 04:01:00,
2013-07-17 21:06:00,54.7,54.1,29.76,WSW,248,14.3,14.3,98,0.00,,,0.00,VWS V14.01,2013-07-18 04:06:00,
2013-07-17 21:11:00,54.5,54.0,29.76,WSW,248,18.6,18.6,98,0.00,,,0.00,VWS V14.01,2013-07-18 04:11:00,
2013-07-17 21:16:00,54.5,54.0,29.76,WSW,248,8.7,8.7,98,0.00,,,0.00,VWS V14.01,2013-07-18 04:16:00,
2013-07-17 21:21:00,54.5,54.0,29.76,WSW,248,9.8,9.8,98,0.00,,,0.00,VWS V14.01,2013-07-18 04:21:00,
2013-07-17 21:26:00,54.3,53.8,29.76,SSW,202,16.3,16.3,98,0.00,,,0.00,VWS V14.01,2013-07-18 04:26:00,
2013-07-17 21:31:00,54.1,53.6,29.76,WSW,248,13.9,13.9,98,0.00,,,0.00,VWS V14.01,2013-07-18 04:31:00,
2013-07-17 21:36:00,54.1,53.6,29.76,SSW,202,12.8,12.8,98,0.00,,,0.00,VWS V14.01,2013-07-18 04:36:00,
2013-07-17 21:41:00,54.1,53.6,29.76,WSW,248,17.7,17.7,98,0.00,,,0.00,VWS V14.01,2013-07-18 04:41:00,
2013-07-17 21:46:00,54.1,53.6,29.76,WSW,248,17.7,17.7,98,0.00,,,0.00,VWS V14.01,2013-07-18 04:46:00,
2013-07-17 21:51:00,54.1,53.6,29.76,WNW,292,15.2,15.2,98,0.00,,,0.00,VWS V14.01,2013-07-18 04:51:00,
2013-07-17 21:56:00,54.1,53.6,29.76,WSW,248,12.8,12.8,98,0.00,,,0.00,VWS V14.01,2013-07-18 04:56:00,
2013-07-17 22:01:00,54.0,53.4,29.76,WNW,292,11.0,11.0,98,0.00,,,0.00,VWS V14.01,2013-07-18 05:01:00,
2013-07-17 22:06:00,54.1,53.6,29.76,WNW,292,14.8,14.8,98,0.00,,,0.00,VWS V14.01,2013-07-18 05:06:00,
2013-07-17 22:11:00,54.1,53.6,29.79,WNW,292,9.8,9.8,98,0.00,,,0.00,VWS V14.01,2013-07-18 05:11:00,
2013-07-17 22:16:00,54.3,53.8,29.79,West,270,8.7,8.7,98,0.00,,,0.00,VWS V14.01,2013-07-18 05:16:00,
2013-07-17 22:21:00,54.3,53.8,29.79,West,270,9.2,9.2,98,0.00,,,0.00,VWS V14.01,2013-07-18 05:21:00,
2013-07-17 22:26:00,54.3,53.8,29.79,WSW,248,12.5,12.5,98,0.00,,,0.00,VWS V14.01,2013-07-18 05:26:00,
2013-07-17 22:31:00,54.3,53.8,29.79,WSW,248,13.6,13.6,98,0.00,,,0.00,VWS V14.01,2013-07-18 05:31:00,
2013-07-17 22:36:00,54.3,53.8,29.79,WSW,248,4.9,4.9,98,0.00,,,0.00,VWS V14.01,2013-07-18 05:36:00,
2013-07-17 22:41:00,54.3,53.8,29.79,NNE,22,4.3,4.3,98,0.00,,,0.00,VWS V14.01,2013-07-18 05:41:00,
2013-07-17 22:46:00,54.5,54.0,29.79,WNW,292,5.4,5.4,98,0.00,,,0.00,VWS V14.01,2013-07-18 05:46:00,
2013-07-17 22:51:00,54.5,54.0,29.79,WSW,248,5.8,5.8,98,0.00,,,0.00,VWS V14.01,2013-07-18 05:51:00,
2013-07-17 22:56:00,54.5,54.0,29.79,WSW,248,5.6,5.6,98,0.00,,,0.00,VWS V14.01,2013-07-18 05:56:00,
2013-07-17 23:01:00,54.5,54.0,29.79,NW,315,11.9,11.9,98,0.00,,,0.00,VWS V14.01,2013-07-18 06:01:00,
2013-07-17 23:06:00,54.3,53.8,29.79,SSW,202,10.7,10.7,98,0.00,,,0.00,VWS V14.01,2013-07-18 06:06:00,
2013-07-17 23:11:00,54.3,53.8,29.79,SSW,202,5.4,5.4,98,0.00,,,0.00,VWS V14.01,2013-07-18 06:11:00,
2013-07-17 23:16:00,54.3,53.8,29.79,SW,225,6.0,6.0,98,0.00,,,0.00,VWS V14.01,2013-07-18 06:16:00,
2013-07-17 23:21:00,54.5,54.0,29.79,SSW,202,8.1,8.1,98,0.00,,,0.00,VWS V14.01,2013-07-18 06:21:00,
2013-07-17 23:26:00,54.5,54.0,29.79,West,270,8.7,8.7,98,0.00,,,0.00,VWS V14.01,2013-07-18 06:26:00,
2013-07-17 23:31:00,54.5,54.0,29.79,WSW,248,6.3,6.3,98,0.00,,,0.00,VWS V14.01,2013-07-18 06:31:00,
2013-07-17 23:36:00,54.3,53.8,29.79,WSW,248,7.8,7.8,98,0.00,,,0.00,VWS V14.01,2013-07-18 06:36:00,
2013-07-17 23:41:00,54.3,53.8,29.79,West,270,10.1,10.1,98,0.00,,,0.00,VWS V14.01,2013-07-18 06:41:00,
2013-07-17 23:46:00,54.3,53.8,29.79,West,270,5.8,5.8,98,0.00,,,0.00,VWS V14.01,2013-07-18 06:46:00,
2013-07-17 23:51:00,54.1,53.6,29.79,WNW,292,6.0,6.0,98,0.00,,,0.00,VWS V14.01,2013-07-18 06:51:00,
2013-07-17 23:56:00,54.1,53.6,29.79,WSW,248,8.5,8.5,98,0.00,,,0.00,VWS V14.01,2013-07-18 06:56:00,